When you browse on this site, cookies collect data to enhance your experience and personalize the content and advertising you see.
Visit our Privacy Policy to learn more. By continuing to use the site, you agree to this use of cookies and data.
  • In Österreich
  • Länderverzeichnis
  • Für 7 Tage
  • Wassertemperatur
  • Satellitenkarten
  • Wetterkarte
  • News
  • Widgets
  • user-avatar
    Anmelden

    Stündliche Wetter Benguela

    Heute, 16 Februar, Samstag

    Zeit Temperatur Niederschläge Wind Luftdruck Luftfeuchtigkeit
    00:00 +29°C° 0 mm 1 m/S 760 mmHg 59%
    01:00 +28°C° 0 mm 1 m/S 760 mmHg 63%
    02:00 +28°C° 0 mm 1 m/S 760 mmHg 66%
    03:00 +28°C° 0 mm 1 m/S 759 mmHg 68%
    04:00 +27°C° 0 mm 1 m/S 759 mmHg 70%
    05:00 +26°C° 0 mm 0 m/S 760 mmHg 70%
    06:00 +26°C° 0 mm 0 m/S 760 mmHg 70%
    07:00 +27°C° 0 mm 0 m/S 760 mmHg 66%
    08:00 +30°C° 0 mm 1 m/S 760 mmHg 60%
    09:00 +32°C° 0 mm 2 m/S 760 mmHg 53%
    10:00 +35°C° 0 mm 2 m/S 760 mmHg 46%
    11:00 +35°C° 0 mm 3 m/S 759 mmHg 44%
    12:00 +36°C° 0 mm 4 m/S 759 mmHg 42%
    13:00 +37°C° 0 mm 5 m/S 758 mmHg 40%
    14:00 +36°C° 0 mm 5 m/S 758 mmHg 40%
    15:00 +36°C° 0 mm 5 m/S 757 mmHg 41%
    16:00 +36°C° 0 mm 5 m/S 757 mmHg 41%
    17:00 +34°C° 0 mm 4 m/S 757 mmHg 44%
    18:00 +33°C° 0 mm 4 m/S 758 mmHg 47%
    19:00 +31°C° 0 mm 3 m/S 758 mmHg 50%
    20:00 +30°C° 0 mm 3 m/S 759 mmHg 52%
    21:00 +30°C° 0 mm 2 m/S 759 mmHg 54%
    22:00 +30°C° 0 mm 2 m/S 760 mmHg 56%
    23:00 +29°C° 0 mm 2 m/S 759 mmHg 58%

    Morgen, 17 Februar, Sonntag

    Zeit Temperatur Niederschläge Wind Luftdruck Luftfeuchtigkeit
    00:00 +29°C° 0 mm 1 m/S 759 mmHg 59%
    01:00 +29°C° 0 mm 1 m/S 759 mmHg 60%
    02:00 +29°C° 0 mm 1 m/S 759 mmHg 61%
    03:00 +29°C° 0 mm 1 m/S 759 mmHg 61%
    04:00 +29°C° 0 mm 1 m/S 759 mmHg 61%
    05:00 +29°C° 0 mm 1 m/S 759 mmHg 61%
    06:00 +29°C° 0 mm 1 m/S 759 mmHg 61%
    07:00 +29°C° 0 mm 1 m/S 759 mmHg 61%
    08:00 +31°C° 0 mm 1 m/S 759 mmHg 54%
    09:00 +33°C° 0 mm 1 m/S 759 mmHg 46%
    10:00 +34°C° 0 mm 1 m/S 759 mmHg 38%
    11:00 +36°C° 0 mm 2 m/S 759 mmHg 37%
    12:00 +37°C° 0 mm 4 m/S 758 mmHg 36%
    13:00 +39°C° 0 mm 5 m/S 758 mmHg 36%
    14:00 +39°C° 0 mm 5 m/S 757 mmHg 38%
    15:00 +37°C° 0 mm 5 m/S 756 mmHg 40%
    16:00 +36°C° 0 mm 5 m/S 755 mmHg 42%
    17:00 +35°C° 0 mm 5 m/S 756 mmHg 45%
    18:00 +34°C° 0 mm 4 m/S 756 mmHg 48%
    19:00 +31°C° 0 mm 3 m/S 757 mmHg 51%
    20:00 +30°C° 0 mm 3 m/S 758 mmHg 56%
    21:00 +29°C° 0 mm 2 m/S 758 mmHg 60%
    22:00 +29°C° 0 mm 2 m/S 759 mmHg 65%
    23:00 +28°C° 0 mm 1 m/S 759 mmHg 68%

    übermorgen, 18 Februar, Montag

    Zeit Temperatur Niederschläge Wind Luftdruck Luftfeuchtigkeit
    00:00 +28°C° 0 mm 1 m/S 759 mmHg 71%
    01:00 +27°C° 0 mm 1 m/S 759 mmHg 73%
    02:00 +27°C° 0 mm 1 m/S 759 mmHg 74%
    03:00 +25°C° 0 mm 0 m/S 759 mmHg 75%
    04:00 +25°C° 0 mm 0 m/S 758 mmHg 76%
    05:00 +25°C° 0 mm 0 m/S 759 mmHg 74%
    06:00 +25°C° 0 mm 0 m/S 759 mmHg 73%
    07:00 +26°C° 0 mm 0 m/S 759 mmHg 71%
    08:00 +29°C° 0 mm 1 m/S 759 mmHg 64%
    09:00 +31°C° 0 mm 2 m/S 759 mmHg 58%
    10:00 +32°C° 0 mm 2 m/S 759 mmHg 51%
    11:00 +34°C° 0 mm 3 m/S 758 mmHg 49%
    12:00 +35°C° 0 mm 4 m/S 758 mmHg 46%
    13:00 +35°C° 0 mm 5 m/S 757 mmHg 44%
    14:00 +35°C° 0 mm 5 m/S 756 mmHg 45%
    15:00 +35°C° 0 mm 5 m/S 755 mmHg 46%
    16:00 +34°C° 0 mm 5 m/S 755 mmHg 47%
    17:00 +33°C° 0 mm 4 m/S 755 mmHg 52%
    18:00 +32°C° 0 mm 4 m/S 756 mmHg 57%
    19:00 +30°C° 0 mm 3 m/S 756 mmHg 62%
    20:00 +29°C° 0 mm 3 m/S 757 mmHg 64%
    21:00 +29°C° 0 mm 2 m/S 758 mmHg 66%
    22:00 +28°C° 0 mm 2 m/S 759 mmHg 68%
    23:00 +28°C° 0 mm 2 m/S 758 mmHg 70%

    19 Februar, Dienstag

    Zeit Temperatur Niederschläge Wind Luftdruck Luftfeuchtigkeit
    00:00 +28°C° 0 mm 2 m/S 758 mmHg 72%
    01:00 +27°C° 0 mm 2 m/S 758 mmHg 73%
    02:00 +27°C° 0 mm 2 m/S 758 mmHg 75%
    03:00 +27°C° 0 mm 1 m/S 757 mmHg 77%
    04:00 +26°C° 0 mm 1 m/S 757 mmHg 78%
    05:00 +26°C° 0 mm 1 m/S 757 mmHg 78%
    06:00 +25°C° 0 mm 0 m/S 758 mmHg 77%
    07:00 +25°C° 0 mm 0 m/S 758 mmHg 76%
    08:00 +29°C° 0 mm 1 m/S 758 mmHg 67%
    09:00 +31°C° 0 mm 2 m/S 758 mmHg 58%
    10:00 +33°C° 0 mm 3 m/S 758 mmHg 50%
    11:00 +33°C° 0 mm 3 m/S 758 mmHg 50%
    12:00 +33°C° 0 mm 3 m/S 757 mmHg 51%
    13:00 +33°C° 0 mm 4 m/S 757 mmHg 52%
    14:00 +33°C° 0 mm 4 m/S 756 mmHg 53%
    15:00 +33°C° 0 mm 3 m/S 756 mmHg 55%
    16:00 +31°C° 0 mm 3 m/S 755 mmHg 56%
    17:00 +31°C° 0 mm 2 m/S 755 mmHg 59%
    18:00 +30°C° 0 mm 2 m/S 756 mmHg 63%
    19:00 +29°C° 0 mm 2 m/S 756 mmHg 66%
    20:00 +29°C° 0.1 mm 2 m/S 757 mmHg 67%
    21:00 +29°C° 0.1 mm 2 m/S 757 mmHg 67%
    22:00 +29°C° 0.1 mm 1 m/S 758 mmHg 67%
    23:00 +29°C° 0 mm 1 m/S 758 mmHg 68%

    20 Februar, Mittwoch

    Zeit Temperatur Niederschläge Wind Luftdruck Luftfeuchtigkeit
    00:00 +28°C° 0 mm 1 m/S 757 mmHg 68%
    01:00 +28°C° 0 mm 1 m/S 757 mmHg 69%
    02:00 +28°C° 0.1 mm 1 m/S 757 mmHg 70%
    03:00 +28°C° 0.1 mm 1 m/S 756 mmHg 71%
    04:00 +28°C° 0.1 mm 2 m/S 756 mmHg 72%
    05:00 +28°C° 0.1 mm 2 m/S 757 mmHg 71%
    06:00 +28°C° 0.1 mm 1 m/S 757 mmHg 70%
    07:00 +29°C° 0.1 mm 1 m/S 757 mmHg 69%
    08:00 +30°C° 0.1 mm 2 m/S 758 mmHg 63%
    09:00 +32°C° 0.1 mm 2 m/S 758 mmHg 57%
    10:00 +35°C° 0.1 mm 2 m/S 758 mmHg 50%
    11:00 +36°C° 0 mm 3 m/S 757 mmHg 48%
    12:00 +37°C° 0 mm 4 m/S 757 mmHg 46%
    13:00 +39°C° 0 mm 6 m/S 756 mmHg 43%
    14:00 +37°C° 0 mm 5 m/S 755 mmHg 46%
    15:00 +37°C° 0 mm 5 m/S 755 mmHg 48%
    16:00 +36°C° 0 mm 5 m/S 755 mmHg 50%
    17:00 +35°C° 0.7 mm 4 m/S 755 mmHg 55%
    18:00 +33°C° 0.7 mm 3 m/S 756 mmHg 59%
    19:00 +31°C° 0.7 mm 2 m/S 757 mmHg 64%
    20:00 +31°C° 0.9 mm 2 m/S 757 mmHg 66%
    21:00 +30°C° 0.9 mm 1 m/S 758 mmHg 69%
    22:00 +30°C° 0.9 mm 1 m/S 759 mmHg 72%
    23:00 +30°C° 0.4 mm 2 m/S 758 mmHg 72%

    21 Februar, Donnerstag

    Zeit Temperatur Niederschläge Wind Luftdruck Luftfeuchtigkeit
    00:00 +30°C° 0.4 mm 2 m/S 758 mmHg 72%
    01:00 +30°C° 0.4 mm 2 m/S 757 mmHg 71%
    02:00 +30°C° 0 mm 2 m/S 757 mmHg 72%
    03:00 +30°C° 0 mm 1 m/S 757 mmHg 72%
    04:00 +30°C° 0 mm 1 m/S 757 mmHg 73%
    05:00 +30°C° 0.2 mm 1 m/S 757 mmHg 72%
    06:00 +30°C° 0.2 mm 1 m/S 758 mmHg 72%
    07:00 +30°C° 0.2 mm 1 m/S 758 mmHg 72%
    08:00 +31°C° 0 mm 2 m/S 758 mmHg 67%
    09:00 +32°C° 0 mm 2 m/S 758 mmHg 62%
    10:00 +35°C° 0 mm 3 m/S 759 mmHg 57%
    11:00 +35°C° 0.2 mm 3 m/S 758 mmHg 56%
    12:00 +35°C° 0.2 mm 3 m/S 757 mmHg 56%
    13:00 +36°C° 0.2 mm 4 m/S 757 mmHg 55%
    14:00 +35°C° 0 mm 4 m/S 757 mmHg 56%
    15:00 +35°C° 0 mm 4 m/S 756 mmHg 56%
    16:00 +35°C° 0 mm 5 m/S 756 mmHg 57%
    17:00 +34°C° 0 mm 4 m/S 757 mmHg 62%
    18:00 +32°C° 0 mm 4 m/S 758 mmHg 68%
    19:00 +30°C° 0 mm 3 m/S 758 mmHg 73%
    20:00 +30°C° 0 mm 3 m/S 759 mmHg 74%
    21:00 +29°C° 0 mm 2 m/S 759 mmHg 75%
    22:00 +29°C° 0 mm 1 m/S 760 mmHg 76%
    23:00 +29°C° 0 mm 1 m/S 759 mmHg 76%
    Mehr zeigen